COSMOS 2251 DEB, 33792

Orbit data source: Space-Track

COSMOS 2251 DEB, 33792 is space debris in LEO originally from a launch on Wed, 16 Jun 1993 UTC launched from the Plesetsk Missile And Space Complex (PKMTR). The debris from Iridium 33, an American commercial communications satellite, has been tracked extensively since its accidental collision with the defunct Russian satellite Cosmos 2251 in 2009. This event, occurring at high speed in low Earth orbit (LEO), generated thousands of pieces of space debris, significantly increasing the risk of further collisions. The Iridium 33 debris cloud has impacted space traffic management and orbital debris mitigation strategies, making it a subject of ongoing study in space situational awareness.

Loading next visibility...
Identifier
33792, 1993-036AH
Orbit
LEO
Country
Flag of CISCIS
Related business
Manufacturer
Unknown
Mission
Spacecraft
Bus & Motor
Unknown
Mass
Unknown
Launch date (UTC)
1993-06-16 (32 years ago)
Launch vehicle
Unknown
Launch site
Plesetsk Missile And Space Complex (PKMTR)
Object type
Payload
Rocket body
Debris
Shape & HBR
Unknown shape, 0.2 m
Radar Cross Section
Medium (>0.1 m² and <1 m²)

Expand to show TLE details & history
Last TLE update: 2 days ago

TLE from 2 days ago
0 COSMOS 2251 DEB
1 33792U 93036AH  25306.37567457  .00000881  00000-0  86668-3 0  9999
2 33792  73.9015  49.7942 0428417 121.9612 306.2683 13.45748540818998
Epoch: 2025-11-02T09:00Z
TLE epoch observation values (Epoch: 2025-11-02T09:00:58.282Z)
Latitude
59.94275°
Longitude
-97.59826°
Altitude
917.762 km
Speed
7.488 km/s
True Right ascension
05h 18m 08s
True Declination
59° 47' 48"
Sunlit
Object was in full shadow at epoch
Visualization orbit readout
Latitude
Unknown
Longitude
Unknown
Altitude
Unknown
Speed
Unknown
Apparent Right ascension
Unknown
Apparent Declination
Unknown
Sunlit
N/A
Visualization observer readout
Local Sidereal Time
17:12:03
Azimuth
Unknown
Elevation
Unknown
Doppler factor
Unknown
Orbital elements
Apogee altitude
1,405.434 km
Perigee altitude
765.909 km
Semi-major axis
7,463.808 km
Eccentricity
0.04284
Inclination
73.9015°
RAAN
49.7942°
Arg. of periapsis
121.9612°
True anomaly
302.18431°
Mean anomaly
306.2683°
Eccentric anomaly
304.23905°
Mean motion
3.36591 °/min
Orbital period
106.95 mins
BSTAR
0.00086668
Loading maneuver chart data...
Computing Atmospheric mass density...

Documentation

Showing up to 5 results
|